Hinckley, MN

8:20 AM CST on December 06, 2019 (GMT -0600)
Hinckley

Weather History for K04W - October, 2019

Change the Weather History Date:

Thursday, October 17, 2019

  Actual Average (WUND) Record (WUND)
Temperature  
Mean Temperature 42 °F -  
Max Temperature 53 °F - - (-1)
Min Temperature 30 °F - - (-1)
Degree Days  
Heating Degree Days 24    
Moisture  
Dew Point 36 °F    
Average Humidity 80    
Maximum Humidity 100    
Minimum Humidity 51    
Precipitation  
Precipitation 0.00 in - - ()
Sea Level Pressure  
Sea Level Pressure 29.98 in    
Wind  
Wind Speed 2 mph (SE)    
Max Wind Speed 8 mph    
Max Gust Speed -    
Visibility 8 miles    
Events Fog    
Averages and records for this station are not official NWS values.
T = Trace of Precipitation, MM = Missing Value Source: NWS Daily Summary

Daily Weather History Graph

Daily Weather History Graph

Search for Another Location

Airport or City:

Astronomy

Oct. 17, 2019 Rise Set
Actual Time 7:30 AM CDT 6:22 PM CDT
Civil Twilight 7:00 AM CDT 6:52 PM CDT
Nautical Twilight 6:25 AM CDT 7:27 PM CDT
Astronomical Twilight 5:51 AM CDT 8:01 PM CDT
Moon 8:43 PM CDT (10/17) 11:13 AM CDT (10/17)
Length of Visible Light 11h 51m
Length of Day
10h 51m
Waning Gibbous, 86% of the Moon is Illuminated
Oct 17
Waning Gibbous
Oct 21
Last Quarter
Oct 27
New
Nov 4
First Quarter
Nov 12
Full

Hourly Weather History & Observations

Time (CDT) Temp. Windchill Dew Point Humidity Pressure Visibility Wind Dir Wind Speed Gust Speed Precip Events Conditions
12:15 AM 41.0 °F - 37.4 °F 87% 30.05 in 10.0 mi Calm Calm - N/A   Overcast
12:19 AM 41.0 °F - 37.4 °F 87% 30.05 in 10.0 mi Calm Calm - N/A   Overcast
12:37 AM 41.0 °F - 37.4 °F 87% 30.04 in 10.0 mi Calm Calm - N/A   Overcast
12:55 AM 41.0 °F - 37.4 °F 87% 30.04 in 10.0 mi Calm Calm - N/A   Overcast
1:15 AM 41.0 °F - 37.4 °F 87% 30.05 in 10.0 mi Calm Calm - N/A   Overcast
1:16 AM 41.0 °F - 37.4 °F 87% 30.05 in 10.0 mi Calm Calm - N/A   Overcast
1:35 AM 41.0 °F - 37.4 °F 87% 30.04 in 10.0 mi Calm Calm - N/A   Overcast
1:36 AM 41.0 °F - 37.4 °F 87% 30.04 in 10.0 mi Calm Calm - N/A   Overcast
1:58 AM 41.0 °F - 37.4 °F 87% 30.03 in 10.0 mi Calm Calm - N/A   Overcast
2:16 AM 39.2 °F - 37.4 °F 93% 30.02 in 10.0 mi Calm Calm - N/A   Overcast
2:35 AM 39.2 °F - 37.4 °F 93% 30.01 in 10.0 mi Calm Calm - N/A   Overcast
2:36 AM 39.2 °F - 37.4 °F 93% 30.01 in 10.0 mi Calm Calm - N/A   Overcast
2:55 AM 39.2 °F - 37.4 °F 93% 30.01 in 10.0 mi Calm Calm - N/A   Overcast
3:18 AM 39.2 °F - 37.4 °F 93% 30.01 in 10.0 mi Calm Calm - N/A   Scattered Clouds
3:37 AM 37.4 °F - 37.4 °F 100% 30.02 in 10.0 mi Calm Calm - N/A   Mostly Cloudy
3:55 AM 37.4 °F - 37.4 °F 100% 30.01 in 10.0 mi Calm Calm - N/A   Overcast
4:15 AM 35.6 °F - 35.6 °F 100% 30.01 in 10.0 mi Calm Calm - N/A   Scattered Clouds
4:16 AM 35.6 °F - 35.6 °F 100% 30.01 in 10.0 mi Calm Calm - N/A   Scattered Clouds
4:35 AM 35.6 °F - 35.6 °F 100% 30.01 in 7.0 mi Calm Calm - N/A   Clear
4:39 AM 35.6 °F - 35.6 °F 100% 30.01 in 5.0 mi Calm Calm - N/A   Clear
4:57 AM 33.8 °F - 33.8 °F 100% 30.01 in 2.5 mi Calm Calm - N/A   Clear
5:15 AM 33.8 °F - 33.8 °F 100% 30.01 in 1.8 mi Calm Calm - N/A   Mist
5:35 AM 32.0 °F - 32.0 °F 100% 30.01 in 0.8 mi Calm Calm - N/A   Mist
5:55 AM 32.0 °F - 32.0 °F 100% 30.02 in 0.5 mi Calm Calm - N/A Fog Fog
6:18 AM 32.0 °F - 32.0 °F 100% 30.02 in 1.0 mi Calm Calm - N/A   Mist
6:36 AM 32.0 °F - 32.0 °F 100% 30.02 in 1.0 mi Calm Calm - N/A   Mist
6:56 AM 32.0 °F - 32.0 °F 100% 30.02 in 0.5 mi Calm Calm - N/A Fog Light Freezing Fog
7:15 AM 32.0 °F - 32.0 °F 100% 30.02 in 0.8 mi Calm Calm - N/A   Overcast
7:16 AM 32.0 °F - 32.0 °F 100% 30.02 in 0.8 mi Calm Calm - N/A   Overcast
7:35 AM 32.0 °F - 32.0 °F 100% 30.02 in 0.2 mi Calm Calm - N/A Fog Light Freezing Fog
7:39 AM 30.2 °F - 30.2 °F 100% 30.02 in 0.2 mi Calm Calm - N/A Fog Light Freezing Fog
7:57 AM 32.0 °F - 32.0 °F 100% 30.03 in 0.2 mi Calm Calm - N/A Fog Light Freezing Fog
8:15 AM 32.0 °F - 32.0 °F 100% 30.04 in 0.2 mi Calm Calm - N/A Fog Light Freezing Fog
8:35 AM 32.0 °F - 32.0 °F 100% 30.04 in 0.2 mi Calm Calm - N/A Fog Fog
8:36 AM 32.0 °F - 32.0 °F 100% 30.04 in 0.2 mi Calm Calm - N/A Fog Fog
8:55 AM 33.8 °F - 33.8 °F 100% 30.03 in 0.2 mi Calm Calm - N/A Fog Fog
8:56 AM 33.8 °F - 33.8 °F 100% 30.03 in 0.2 mi Calm Calm - N/A Fog Fog
9:19 AM 35.6 °F - 35.6 °F 100% 30.03 in 0.2 mi Calm Calm - N/A Fog Fog
9:36 AM 37.4 °F - 37.4 °F 100% 30.04 in 0.5 mi Calm Calm - N/A Fog Fog
9:56 AM 39.2 °F - 39.2 °F 100% 30.04 in 10.0 mi Calm Calm - N/A   Mostly Cloudy
10:15 AM 41.0 °F - 41.0 °F 100% 30.04 in 10.0 mi Calm Calm - N/A   Scattered Clouds
10:16 AM 41.0 °F - 41.0 °F 100% 30.04 in 10.0 mi Calm Calm - N/A   Scattered Clouds
10:35 AM 42.8 °F 40.1 °F 39.2 °F 87% 30.05 in 10.0 mi South 4.6 mph - N/A   Mostly Cloudy
10:39 AM 42.8 °F - 39.2 °F 87% 30.05 in 10.0 mi Calm Calm - N/A   Mostly Cloudy
10:57 AM 44.6 °F 41.4 °F 37.4 °F 76% 30.04 in 10.0 mi SE 5.8 mph - N/A   Overcast
11:16 AM 44.6 °F 40.7 °F 39.2 °F 81% 30.03 in 10.0 mi South 6.9 mph - N/A   Overcast
11:35 AM 44.6 °F 42.2 °F 37.4 °F 76% 30.02 in 10.0 mi SSE 4.6 mph - N/A   Mostly Cloudy
11:36 AM 44.6 °F 41.4 °F 37.4 °F 76% 30.02 in 10.0 mi SE 5.8 mph - N/A   Mostly Cloudy
11:55 AM 46.4 °F 44.3 °F 37.4 °F 71% 30.03 in 10.0 mi East 4.6 mph - N/A   Mostly Cloudy
11:56 AM 46.4 °F 45.2 °F 37.4 °F 71% 30.02 in 10.0 mi ESE 3.5 mph - N/A   Mostly Cloudy
12:19 PM 48.2 °F - 37.4 °F 66% 30.01 in 10.0 mi SSE 6.9 mph - N/A   Mostly Cloudy
12:36 PM 48.2 °F - 39.2 °F 71% 30.01 in 10.0 mi SSE 6.9 mph - N/A   Mostly Cloudy
12:55 PM 50.0 °F - 39.2 °F 66% 30.00 in 10.0 mi SSE 5.8 mph - N/A   Mostly Cloudy
1:15 PM 50.0 °F - 37.4 °F 62% 30.00 in 10.0 mi South 3.5 mph - N/A   Scattered Clouds
1:16 PM 50.0 °F - 37.4 °F 62% 30.00 in 10.0 mi SSE 4.6 mph - N/A   Scattered Clouds
1:38 PM 51.8 °F - 37.4 °F 58% 29.99 in 10.0 mi South 8.1 mph - N/A   Scattered Clouds
1:56 PM 51.8 °F - 37.4 °F 58% 29.98 in 10.0 mi ESE 5.8 mph - N/A   Scattered Clouds
2:16 PM 51.8 °F - 37.4 °F 58% 29.97 in 10.0 mi SSE 8.1 mph - N/A   Clear
2:35 PM 51.8 °F - 37.4 °F 58% 29.97 in 10.0 mi Calm Calm - N/A   Clear
2:36 PM 51.8 °F - 37.4 °F 58% 29.97 in 10.0 mi South 3.5 mph - N/A   Clear
2:59 PM 53.6 °F - 37.4 °F 54% 29.96 in 10.0 mi South 5.8 mph - N/A   Clear
3:16 PM 53.6 °F - 37.4 °F 54% 29.95 in 10.0 mi SSE 3.5 mph - N/A   Clear
3:35 PM 53.6 °F - 37.4 °F 54% 29.94 in 10.0 mi SSE 4.6 mph - N/A   Clear
3:36 PM 53.6 °F - 37.4 °F 54% 29.94 in 10.0 mi SSE 5.8 mph - N/A   Clear
3:55 PM 53.6 °F - 37.4 °F 54% 29.93 in 10.0 mi SSE 6.9 mph - N/A   Clear
3:56 PM 53.6 °F - 37.4 °F 54% 29.93 in 10.0 mi SSE 8.1 mph - N/A   Clear
4:18 PM 53.6 °F - 37.4 °F 54% 29.93 in 10.0 mi SE 5.8 mph - N/A   Clear
4:36 PM 53.6 °F - 37.4 °F 54% 29.93 in 10.0 mi SSE 5.8 mph - N/A   Clear
4:55 PM 53.6 °F - 35.6 °F 51% 29.92 in 10.0 mi ESE 6.9 mph - N/A   Clear
4:56 PM 53.6 °F - 35.6 °F 51% 29.92 in 10.0 mi ESE 6.9 mph - N/A   Clear
5:15 PM 53.6 °F - 35.6 °F 51% 29.92 in 10.0 mi SE 5.8 mph - N/A   Clear
5:16 PM 53.6 °F - 35.6 °F 51% 29.92 in 10.0 mi SE 6.9 mph - N/A   Clear
5:38 PM 51.8 °F - 35.6 °F 54% 29.92 in 10.0 mi SE 5.8 mph - N/A   Clear
5:57 PM 51.8 °F - 35.6 °F 54% 29.91 in 10.0 mi SE 4.6 mph - N/A   Clear
6:16 PM 50.0 °F - 35.6 °F 58% 29.91 in 10.0 mi SE 3.5 mph - N/A   Clear
6:35 PM 50.0 °F - 35.6 °F 58% 29.91 in 10.0 mi SE 3.5 mph - N/A   Clear
6:36 PM 50.0 °F - 35.6 °F 58% 29.91 in 10.0 mi SE 3.5 mph - N/A   Clear
6:55 PM 48.2 °F - 35.6 °F 62% 29.91 in 10.0 mi SE 3.5 mph - N/A   Clear
6:59 PM 46.4 °F 45.2 °F 35.6 °F 66% 29.91 in 10.0 mi SE 3.5 mph - N/A   Clear
7:17 PM 46.4 °F 45.2 °F 35.6 °F 66% 29.91 in 10.0 mi ESE 3.5 mph - N/A   Clear
7:36 PM 44.6 °F - 35.6 °F 71% 29.92 in 10.0 mi Calm Calm - N/A   Clear
7:55 PM 42.8 °F - 35.6 °F 76% 29.92 in 10.0 mi Calm Calm - N/A   Clear
7:56 PM 41.0 °F - 35.6 °F 81% 29.92 in 10.0 mi Calm Calm - N/A   Clear
8:15 PM 42.8 °F 40.1 °F 37.4 °F 81% 29.92 in 10.0 mi East 4.6 mph - N/A   Clear
8:19 PM 42.8 °F 39.3 °F 35.6 °F 76% 29.92 in 10.0 mi East 5.8 mph - N/A   Clear
8:38 PM 44.6 °F 41.4 °F 35.6 °F 71% 29.91 in 10.0 mi ESE 5.8 mph - N/A   Clear
8:55 PM 44.6 °F 41.4 °F 37.4 °F 76% 29.91 in 10.0 mi ESE 5.8 mph - N/A   Clear
9:15 PM 44.6 °F 42.2 °F 35.6 °F 71% 29.91 in 10.0 mi ESE 4.6 mph - N/A   Clear
9:16 PM 44.6 °F 42.2 °F 35.6 °F 71% 29.91 in 10.0 mi ESE 4.6 mph - N/A   Clear
9:35 PM 42.8 °F 40.1 °F 35.6 °F 76% 29.91 in 10.0 mi ESE 4.6 mph - N/A   Clear
9:36 PM 42.8 °F 40.1 °F 35.6 °F 76% 29.91 in 10.0 mi ESE 4.6 mph - N/A   Clear
9:58 PM 42.8 °F 40.1 °F 35.6 °F 76% 29.91 in 10.0 mi ESE 4.6 mph - N/A   Clear
10:16 PM 42.8 °F 40.1 °F 35.6 °F 76% 29.91 in 10.0 mi ESE 4.6 mph - N/A   Clear
10:36 PM 42.8 °F 39.3 °F 35.6 °F 76% 29.91 in 10.0 mi East 5.8 mph - N/A   Clear
10:55 PM 42.8 °F 39.3 °F 37.4 °F 81% 29.90 in 10.0 mi ESE 5.8 mph - N/A   Clear
10:56 PM 42.8 °F 39.3 °F 37.4 °F 81% 29.91 in 10.0 mi ESE 5.8 mph - N/A   Clear
11:18 PM 42.8 °F 41.1 °F 37.4 °F 81% 29.91 in 10.0 mi ESE 3.5 mph - N/A   Clear
11:37 PM 41.0 °F 38.0 °F 37.4 °F 87% 29.91 in 10.0 mi ESE 4.6 mph - N/A   Clear
11:56 PM 41.0 °F 37.1 °F 37.4 °F 87% 29.90 in 10.0 mi East 5.8 mph - N/A   Clear